DW0326 Weather Reports


Display with metric or nautical units.
time (UTC)temp
F
wind
direction
speed
MPH
gust
MPH
rain 1hr
in
rain 24hr
in
rain mn
in
humidity
%
barometer
mb
20260510090542 75 187 4.0 12.0 0.00 0.00 0.00 95 1006.6
20260510085642 75 179 3.0 10.0 0.00 0.00 0.00 95 1006.6
20260510083842 75 0 0.0 0.0 0.00 0.00 0.00 95 1006.6
20260510082943 75 0 0.0 0.0 0.00 0.00 0.00 94 1006.6
20260510082042 75 186 0.0 6.0 0.00 0.00 0.00 94 1006.6
20260510081142 75 174 1.0 9.0 0.00 0.00 0.00 94 1006.5
20260510080242 75 0 0.0 0.0 0.00 0.00 0.00 94 1006.5
20260510075342 75 0 0.0 0.0 0.00 0.00 0.00 93 1006.4
20260510074442 75 176 1.0 7.0 0.00 0.00 0.00 93 1006.4
20260510073543 75 185 2.0 11.0 0.00 0.00 0.00 93 1006.5
20260510072642 76 182 1.0 10.0 0.00 0.00 0.00 92 1006.5
20260510071742 76 184 2.0 9.0 0.00 0.00 0.00 93 1006.5
20260510070842 76 172 1.0 7.0 0.00 0.00 0.00 93 1006.7
20260510065942 76 191 1.0 10.0 0.00 0.00 0.00 93 1006.7
20260510065042 76 198 0.0 6.0 0.00 0.00 0.00 93 1006.5
20260510064142 76 194 1.0 7.0 0.00 0.00 0.00 93 1006.5
20260510063242 76 196 1.0 9.0 0.00 0.00 0.00 93 1006.6
20260510062342 76 196 3.0 7.0 0.00 0.00 0.00 93 1006.7
20260510061442 77 187 2.0 10.0 0.00 0.00 0.00 93 1006.7
20260510060542 77 186 2.0 11.0 0.00 0.00 0.00 92 1006.8
20260510055643 77 185 0.0 7.0 0.00 0.00 0.00 92 1006.8
20260510054742 77 154 1.0 9.0 0.00 0.00 0.00 92 1006.9
20260510053842 77 122 0.0 9.0 0.00 0.00 0.00 91 1007.0
20260510052942 77 147 1.0 10.0 0.00 0.00 0.00 91 1007.0
20260510051142 77 139 1.0 6.0 0.00 0.00 0.00 92 1007.1
20260510050243 77 144 2.0 12.0 0.00 0.00 0.00 92 1007.0
20260510045342 77 145 2.0 12.0 0.00 0.00 0.00 92 1007.4
20260510044442 78 151 1.0 12.0 0.00 0.00 0.00 92 1007.4
20260510043542 78 119 1.0 6.0 0.00 0.00 0.00 91 1007.5
20260510042642 78 123 0.0 5.0 0.00 0.00 0.00 91 1007.5
20260510041742 78 85 1.0 8.0 0.00 0.00 0.00 90 1007.5
20260510040842 78 104 1.0 7.0 0.00 0.00 0.00 89 1007.1
20260510035943 78 103 1.0 7.0 0.00 0.00 0.00 88 1007.1
20260510035042 78 91 0.0 6.0 0.00 0.00 0.00 88 1007.4
20260510034142 79 103 1.0 7.0 0.00 0.00 0.00 88 1007.4
20260510033242 79 125 1.0 7.0 0.00 0.00 0.00 87 1007.5
20260510032342 80 109 1.0 9.0 0.00 0.00 0.00 86 1007.5
20260510031442 80 134 2.0 9.0 0.00 0.00 0.00 85 1007.5
20260510030542 81 110 1.0 10.0 0.00 0.00 0.00 85 1007.2
20260510025642 81 96 2.0 14.0 0.00 0.00 0.00 83 1007.2
20260510024742 81 106 1.0 9.0 0.00 0.00 0.00 77 1006.7
20260510023843 81 119 1.0 9.0 0.00 0.00 0.00 75 1006.4
20260510022942 81 121 1.0 7.0 0.00 0.00 0.00 74 1006.4
20260510022042 81 157 0.0 6.0 0.00 0.00 0.00 72 1006.0
20260510015343 81 195 2.0 10.0 0.00 0.00 0.00 70 1005.2
20260510014442 80 198 1.0 7.0 0.00 0.00 0.00 72 1005.2
20260510013543 80 205 0.0 4.0 0.00 0.00 0.00 82 1004.9
20260510012642 80 0 0.0 0.0 0.00 0.00 0.00 82 1004.9
20260510011742 80 0 0.0 0.0 0.00 0.00 0.00 82 1004.5
20260510005942 81 0 0.0 0.0 0.00 0.00 0.00 81 1004.4
20260510002342 83 0 0.0 0.0 0.00 0.00 0.00 78 1003.9
20260510001442 85 0 0.0 0.0 0.00 0.00 0.00 76 1003.9
20260509234742 88 199 2.0 11.0 0.00 0.00 0.00 65 1003.4
20260509232942 89 190 2.0 11.0 0.00 0.00 0.00 60 1003.7
20260509232042 89 201 1.0 9.0 0.00 0.00 0.00 58 1003.5
20260509230430 90 210 0.0 6.0 0.00 0.00 0.00 59 1003.3
20260509225528 90 216 0.0 6.0 0.00 0.00 0.00 59 1003.3
20260509224628 90 222 0.0 5.0 0.00 0.00 0.00 56 1003.3
20260509223729 91 276 0.0 4.0 0.00 0.00 0.00 58 1003.1
20260509221929 92 0 0.0 0.0 0.00 0.00 0.00 61 1003.0
20260509221029 92 0 0.0 0.0 0.00 0.00 0.00 62 1003.0
20260509220129 92 0 0.0 0.0 0.00 0.00 0.00 62 1003.0
20260509215229 92 0 0.0 0.0 0.00 0.00 0.00 60 1003.1
20260509214328 92 0 0.0 0.0 0.00 0.00 0.00 61 1003.1
20260509213428 92 0 0.0 0.0 0.00 0.00 0.00 62 1003.1
20260509212530 92 9 0.0 7.0 0.00 0.00 0.00 61 1003.3
20260509211629 92 9 0.0 7.0 0.00 0.00 0.00 64 1003.3
20260509205828 92 14 0.0 9.0 0.00 0.00 0.00 63 1003.4
20260509204030 91 3 0.0 7.0 0.00 0.00 0.00 64 1003.8
20260509203128 91 0 0.0 0.0 0.00 0.00 0.00 65 1003.8
20260509202228 91 0 0.0 0.0 0.00 0.00 0.00 65 1003.9
20260509201328 90 0 0.0 0.0 0.00 0.00 0.00 65 1003.9
20260509200428 90 0 0.0 0.0 0.00 0.01 0.00 67 1004.0
20260509195529 90 353 0.0 6.0 0.00 0.01 0.00 68 1004.3
20260509194629 89 351 0.0 6.0 0.00 0.01 0.00 69 1004.3
20260509193728 89 33 0.0 6.0 0.00 0.01 0.00 68 1004.3
20260509191929 89 36 0.0 7.0 0.00 0.01 0.00 69 1004.4
20260509190129 88 0 0.0 0.0 0.00 0.01 0.00 71 1004.4
20260509185228 88 0 0.0 0.0 0.00 0.01 0.00 68 1004.7
20260509183428 88 0 0.0 0.0 0.00 0.01 0.00 71 1004.9
20260509182528 88 0 0.0 0.0 0.00 0.01 0.00 74 1005.4
20260509181628 87 175 0.0 6.0 0.00 0.01 0.00 74 1005.4
20260509180728 86 204 1.0 9.0 0.00 0.01 0.00 74 1005.5
20260509175828 86 194 1.0 9.0 0.00 0.03 0.00 76 1005.5
20260509174929 86 183 3.0 11.0 0.00 0.04 0.00 78 1005.5
20260509174028 85 192 2.0 10.0 0.00 0.04 0.00 80 1006.0
20260509173129 84 199 1.0 7.0 0.00 0.04 0.00 82 1006.0
20260509172229 83 212 1.0 9.0 0.00 0.04 0.00 83 1006.3
20260509171328 83 230 1.0 8.0 0.00 0.04 0.00 84 1006.3
20260509170429 82 313 0.0 5.0 0.00 0.04 0.00 86 1006.4
20260509165529 82 0 0.0 0.0 0.00 0.04 0.00 86 1006.3
20260509164628 82 0 0.0 0.0 0.00 0.04 0.00 86 1006.3
20260509162828 81 0 0.0 0.0 0.00 0.04 0.00 88 1006.2
20260509161928 81 0 0.0 0.0 0.00 0.04 0.00 89 1006.2
20260509161028 81 0 0.0 0.0 0.00 0.04 0.00 88 1006.1
20260509160128 80 0 0.0 0.0 0.00 0.04 0.00 88 1006.1
20260509154328 79 0 0.0 0.0 0.00 0.04 0.00 90 1006.0
20260509153429 79 0 0.0 0.0 0.00 0.04 0.00 92 1006.0
20260509152529 79 0 0.0 0.0 0.00 0.04 0.00 94 1006.1
20260509151629 78 0 0.0 0.0 0.00 0.05 0.00 93 1006.1
20260509145829 77 0 0.0 0.0 0.00 0.05 0.00 95 1006.0
20260509144929 77 0 0.0 0.0 0.00 0.05 0.00 96 1005.7
20260509144028 77 0 0.0 0.0 0.00 0.05 0.00 97 1005.6
20260509143129 77 0 0.0 0.0 0.00 0.05 0.00 97 1005.6
20260509142228 77 0 0.0 0.0 0.00 0.05 0.00 98 1005.4
20260509141329 76 0 0.0 0.0 0.00 0.05 0.00 98 1005.4
20260509135529 76 0 0.0 0.0 0.00 0.05 0.00 98 1005.6
20260509134628 76 0 0.0 0.0 0.00 0.05 0.00 99 1005.6
20260509133728 76 0 0.0 0.0 0.00 0.05 0.00 100 1006.5
20260509132828 76 0 0.0 0.0 0.00 0.05 0.00 100 1006.5
20260509131928 76 0 0.0 0.0 0.00 0.05 0.00 100 1006.4
20260509131029 76 0 0.0 0.0 0.00 0.05 0.00 100 1006.2
20260509130128 76 0 0.0 0.0 0.00 0.05 0.00 100 1006.2
20260509125228 75 0 0.0 0.0 0.00 0.05 0.00 100 1006.0
20260509124328 75 0 0.0 0.0 0.00 0.05 0.00 100 1006.0
20260509123429 75 0 0.0 0.0 0.00 0.05 0.00 100 1006.0
20260509122529 75 0 0.0 0.0 0.00 0.05 0.00 100 1006.0
20260509121628 75 0 0.0 0.0 0.00 0.05 0.00 100 1006.0
20260509120728 75 0 0.0 0.0 0.00 0.05 0.00 100 1005.5
20260509115828 75 0 0.0 0.0 0.00 0.05 0.00 100 1005.5
20260509114929 75 0 0.0 0.0 0.00 0.05 0.00 100 1005.8
20260509114028 75 0 0.0 0.0 0.00 0.05 0.00 99 1006.1
20260509113128 75 0 0.0 0.0 0.00 0.05 0.00 99 1006.1
20260509112229 75 0 0.0 0.0 0.00 0.05 0.00 99 1005.9
20260509111328 75 0 0.0 0.0 0.00 0.05 0.00 99 1005.9
20260509110429 75 0 0.0 0.0 0.00 0.05 0.00 99 1005.4
20260509105528 75 0 0.0 0.0 0.00 0.05 0.00 99 1005.2
20260509103728 75 0 0.0 0.0 0.00 0.05 0.00 99 1005.4
20260509102828 75 0 0.0 0.0 0.00 0.05 0.00 99 1005.4
20260509101928 75 0 0.0 0.0 0.00 0.05 0.00 99 1005.3
20260509101028 75 0 0.0 0.0 0.00 0.05 0.00 99 1005.1
20260509100128 75 0 0.0 0.0 0.00 0.05 0.00 99 1005.1
20260509095228 75 0 0.0 0.0 0.00 0.05 0.00 99 1005.0
20260509094328 75 0 0.0 0.0 0.00 0.05 0.00 99 1005.0
20260509093428 75 0 0.0 0.0 0.00 0.05 0.00 99 1005.0
20260509092529 75 0 0.0 0.0 0.00 0.05 0.00 99 1005.2
20260509091628 75 0 0.0 0.0 0.00 0.05 0.00 99 1005.2